www.pogodaiklimat.ru

Погода и климат >> Архив погоды >> Россия >> Ненецкий АО >> Индига


АРХИВ ПОГОДЫ в Индиге

Время (UTC), дата Ветер
(напр.,м/с)
 
Видим.   Явления Облачность Т
(С)
Тd
(С)
f
(%)
Тe
(С)
Тes
(С)
Комфортность P
(гПа)
Po
(гПа)
Тmin
(С)
Tmax
(С)
R
(мм)
R24
(мм)
S
(см)
18 16.08 СЗ 6 200 м туман {ливн. осадки} ?/? +7.8 +7.8 100 +3 +3 1008.1 1007.6
21 16.08 СЗ 5 200 м туман ?/? +7.6 +7.6 100 +3 +3 1010.6 1010.1
00 17.08 СЗ 5 4000 м слаб. морось {туман} 10/10 300 м
[St]
+7.9 +7.9 100 +4 +4 1012.7 1012.2
03 17.08 СЗ 4 4000 м слаб. морось 10/10 300 м
[St]
+7.8 +7.8 100 +4 +4 1014.2 1013.7 +7.5 0.3
06 17.08 СЗ 3 10 км {морось} 10/10 300 м
[St]
+8.2 +8.2 100 +5 +5 1016.0 1015.5
09 17.08 СЗ 3 10 км 10/10 300 м
[St]
+8.8 +8.8 100 +6 +6 1017.0 1016.5
12 17.08 С 1 20 км 10/10 600 м
[Sc]
+9.1 +8.2 94 +8 +8 1018.5 1018.0
15 17.08 В 1 10 км 10/10 600 м
[Sc]
+9.6 +9.0 96 +9 +9 1019.0 1018.5 +9.6
18 17.08 Ю 3 20 км 9/9 600 м
[Sc]
+11.1 +10.6 97 +9 +9 1019.3 1018.8
21 17.08 Ю 4 20 км 3/0
[Ac trans Ci fib]
+7.8 +7.6 99 +4 +4 1019.6 1019.1
00 18.08 ЮЗ 5 10 км 9/8 600 м
[Sc Ac trans]
+10.5 +10.2 98 +7 +7 1020.6 1020.1
03 18.08 Ю 5 20 км 8/5 600 м
[Sc Ac trans]
+11.5 +10.7 95 +9 +9 1020.9 1020.4 +7.8
06 18.08 ЮЗ 8-10
{11}
20 км 9/6 600 м
[Sc Ac trans Ci fib]
+14.1 +11.9 87 +12 +12 1021.3 1020.8
09 18.08 ЮЗ 9-12
{12}
20 км 4/1 600 м
[Cu med, cong Ac trans Ci fib]
+17.7 +12.9 73 +17 +17 1021.5 1021.0
12 18.08 З 7
{13}
20 км 4/3 600 м
[Sc Ac trans]
+19.3 +12.3 64 +20 +21 1022.3 1021.8
15 18.08 ЮЗ 3
{10}
20 км 3/0
[Ac trans]
+17.6 +12.2 71 +18 +18 1022.5 1022.0 +19.9
18 18.08 Ю 6 20 км 3/0
[Ac trans]
+14.1 +12.0 87 +12 +12 1023.1 1022.6
21 18.08 Ю 6 20 км 1/0
[Ci fib]
+11.5 +9.4 87 +9 +9 1023.7 1023.2
00 19.08 Ю 6 20 км 1/0 300 м
[Ci fib]
+11.0 +9.4 90 +8 +8 1024.3 1023.8
03 19.08 В 4 20 км 3/0
[Ci fib]
+10.5 +9.4 93 +8 +8 1024.4 1023.9 +9.8
06 19.08 ЮВ 4 20 км 3/0
[Ci fib]
+16.6 +12.8 78 +16 +19 1023.9 1023.4
09 19.08 Ю 5
{10}
20 км 5/5 600 м
[Cu hum]
+20.8 +11.4 55 +23 +25 комфорт 1022.5 1022.0
12 19.08 Ю 5
{10}
20 км 6/6 600 м
[Cu hum]
+21.3 +11.7 54 +23 +24 комфорт 1021.7 1021.2
15 19.08 ЮВ 5 20 км 1/0
[Ac trans]
+19.8 +11.7 60 +21 +21 комфорт 1020.5 1020.0 +21.9
18 19.08 ЮВ 4 20 км 1/0
[Ci fib]
+13.9 +12.1 89 +12 +12 1020.0 1019.5
21 19.08 ЮВ 7 20 км 3/0
[Ci fib]
+12.2 +10.8 91 +9 +9 1019.2 1018.7
00 20.08 ЮВ 5 10 км 6/5 300 м
[Cb cap Ac trans]
+10.9 +10.3 96 +8 +8 1018.5 1018.0
03 20.08 ЮВ 6 20 км 9/8 300 м
[Cb cap Ac trans]
+13.1 +12.0 93 +11 +11 1017.7 1017.2 +10.9
06 20.08 ЮВ 4 20 км 9/6 300 м
[Cb cap Ac As]
+17.0 +14.0 82 +17 +17 1017.2 1016.7
09 20.08 Ю 7 20 км 9/9 300 м
[Cb cap]
+20.0 +15.2 74 +22 +22 комфорт 1016.5 1016.0
12 20.08 ЮЗ 4
{10}
20 км 10/10 600 м
[Sc]
+20.0 +16.5 80 +23 +23 комфорт 1016.3 1015.8
15 20.08 Ю 3 20 км 10/10 300 м
[Cb cap]
+18.9 +16.2 84 +20 +20 1016.1 1015.6 +20.6
18 20.08 Ю 6 10 км {ливн. осадки} 10/10 300 м
[Cb cap]
+16.9 +15.7 93 +16 +16 1015.9 1015.4
21 20.08 СЗ 2 10 км 9/9 300 м
[Cb cap]
+16.0 +14.8 93 +16 +16 1015.8 1015.3
00 21.08 Ю 4 4000 м слаб. ливневой дождь 10/10 300 м
[Cb cap]
+15.8 +15.8 100 +15 +15 1015.1 1014.6
03 21.08 З 6 2000 м слаб. ливневой дождь 10/10 300 м
[Cb cap]
+12.7 +12.7 100 +10 +10 1015.7 1015.2 +12.7 5
06 21.08 З 6 4000 м в посл. час туман {ливн. осадки} 10/10 300 м
[St]
+12.1 +12.1 100 +9 +9 1016.2 1015.7 +12.0
09 21.08 З 8
{11}
10 км {туман} 9/5 300 м
[St Cc]
+14.4 +14.0 97 +12 +12 1016.7 1016.2
12 21.08 З 6
{10}
10 км {туман} 10/3 300 м
[Cb cap Ac trans Cs]
+16.3 +14.2 87 +15 +16 1016.6 1016.1
15 21.08 З 4 20 км 8/1 300 м
[Cb cap Cs]
+17.2 +13.8 80 +17 +17 1016.2 1015.7 +17.5 0.4
18 21.08 ЮЗ 5 20 км 9/3 300 м
[Cb cap Cs]
+14.1 +12.6 91 +12 +12 1016.4 1015.9
21 21.08 З 5 20 км 4/0
[Ac trans Ci fib]
+12.5 +12.0 97 +10 +10 1015.9 1015.4
00 22.08 ЮЗ 5 10 км 3/0
[Ac trans]
+10.5 +10.3 99 +7 +7 1016.0 1015.5
03 22.08 ЮЗ 4 4000 м дымка 3/3 300 м
[St]
+11.2 +11.2 100 +9 +9 1015.8 1015.3 +9.9
06 22.08 ЮЗ 4 10 км 8/8 300 м
[St]
+13.4 +13.0 97 +12 +12 1016.0 1015.5
09 22.08 З 4 10 км 3/1 300 м
[Cb cap Ci fib]
+16.9 +12.4 75 +16 +20 1015.4 1014.9
12 22.08 З 3 20 км 6/3 300 м
[Cb cap Ci fib]
+15.6 +12.7 83 +15 +17 1014.4 1013.9
15 22.08 штиль 0 20 км 9/3 300 м
[Cb cap Ac As]
+15.2 +12.6 84 +15 +15 1013.3 1012.8 +17.5
18 22.08 В 1 20 км 10/8 300 м
[Cb cap Ac As]
+13.3 +12.5 95 +13 +13 1012.4 1011.9
21 22.08 СВ 1 20 км 8/4 300 м
[Cb cap Ac trans]
+12.5 +12.1 97 +12 +12 1011.4 1010.9
00 23.08 штиль 0 20 км 9/8 300 м
[Cb cap Ac trans]
+10.4 +10.4 100 +10 +10 1010.0 1009.5
03 23.08 С 4 200 м туман ?/? +10.7 +10.7 100 +8 +8 1009.8 1009.3 +9.7
06 23.08 С 3 200 м туман ?/? +10.0 +10.0 100 +8 +8 1010.3 1009.8
09 23.08 С 5 2000 м дымка {туман} 10/10 300 м
[St]
+10.3 +10.3 100 +7 +7 1011.3 1010.8
12 23.08 С 6 2000 м в посл. час туман 10/10 300 м
[St]
+9.9 +9.9 100 +6 +6 1013.0 1012.5

 

Местоположение метеостанции Индига (Ненецкий АО, Россия): широта 67.68 долгота 48.68 высота над уровнем моря 4 м.

В архиве по умолчанию представлена погода в Индиге за последнюю неделю. Архивные данные за месяц целиком и за предыдущие месяцы, начиная с января 2011 года, Вы можете получить, выбрав интересующий диапазон дат из раскрывающегося списка и нажав кнопку "Ввод!".


*Определитесь, кто Вы:
робот инопланетянин человек

Внимание! Время в таблицах - всемирное. Для получения местного времени необходимо прибавить поправку, которая равна 3 ч.

Смотрите также архив погоды в соседних городах и на ближайших метеорологических станциях:

Погода на Мысе Микулкин (Ненецкий АО, Россия) (86 км)
Погода в Нижней Пеше (Ненецкий АО, Россия) (111 км)
Погода в Коткино (Ненецкий АО, Россия) (127 км)
Погода в Бугрино (Ненецкий АО, Россия) (127 км)
Погода в Сенгейском Шаре (Ненецкий АО, Россия) (139 км)
Погода в Нарьян-Маре (Ненецкий АО, Россия) (184 км)
Погода в Шойне (Ненецкий АО, Россия) (191 км)
Погода на Колгуевом Острове (Ненецкий АО, Россия) (206 км)
Погода в Неси (Ненецкий АО, Россия) (210 км)
Погода в Окуневом Носу (Коми, Россия) (233 км)

Пояснения к столбцам:

Ветер - указаны скорость ветра в м/с - средняя за 10 мин, порывы в срок и между сроками (в фигурных скобках) и направление, откуда дует ветер: С - северный, СВ - северо-восточный, В - восточный, ЮВ - юго-восточный, Ю - южный, ЮЗ - юго-западный, З - западный, СЗ - северо-западный.
Видимость - горизонтальная дальность видимости в метрах или километрах. При видимости от 1 до 10 км при отсутствии осадков обычно наблюдается дымка, при ухудшении видимости до 1 км и менее - туман. В сухую погоду видимость может ухудшаться дымом, пылью или мглою.
Явления - указаны атмосферные явления, наблюдавшиеся в срок или в последний час перед сроком; фигурными скобками обозначены явления, наблюдавшиеся между сроками (за 1-3 часа до срока); квадратными скобками обозначены град или гололедные отложения с указанием их диаметра в мм.
Облачность - указаны через наклонную черту общая и нижняя облачность в баллах и высота нижней границы облаков в метрах; квадратными скобками обозначены формы облаков: Ci - перистые, Cs - перисто-слоистые, Cc - перисто-кучевые, Ac - высококучевые, As - высокослоистые, Sc - слоисто-кучевые, Ns - слоисто-дождевые, Cu - кучевые, Cb - кучево-дождевые. Подробнее классификацию облаков см. в Атласе облаков (PDF).
T - Температура воздуха - температура, измеренная на высоте 2 м над землей.
Td - Температура точки росы - температура, при понижении до которой содержащийся в воздухе водяной пар достигнет насыщения.
f - Относительная влажность воздуха - влажноcть воздуха, измеренная на высоте 2 м над землей.
Te - Эффективная температура - температура, которую ощущает одетый по сезону человек в тени. Характеристика душности погоды. При расчете учитывается влияние влажности воздуха и скорости ветра на теплоощущения человека.
Tes - Эффективная температура на солнце - температура, которую ощущает человек, с поправкой на солнечный нагрев. Характеристика знойности погоды. Зависит от высоты солнца над горизонтом, облачности и скорости ветра. Ночью, в пасмурную погоду, а также при ветре 12 м/с и более поправка равна нулю.
P - Атмосферное давление - приведенное к уровню моря атмосферное давление.
Po - Атмосферное давление - измеренное на уровне метеостанции атмосферное давление.
Tmin - Минимальная температура - минимум температуры воздуха на высоте 2 м над землей.
Tmax - Максимальная температура - максимум температуры воздуха на высоте 2 м над землей.
R - Количество осадков - Количество выпавших осадков за период времени, мм. При наведении курсора мыши на число - период времени, за который выпало указанное количество осадков.
R24 - Количество осадков - Количество выпавших осадков за 24 часа, мм.
S - Снежный покров - Высота снежного покрова, см. При наведении курсора мыши на число - состояние снежного покрова и степень покрытия местности в баллах.